Location: Cranford
(40.6578°N, 74.3024°W)
Time: 12:52:24
(UTC+00:00)

STARLINK-5279 - Pass Details

Date: 08 December 2022
Orbit: 538 x 541 km, 53.2° (Epoch: 27 January)

Event Time Altitude Azimuth Distance (km) Brightness Sun altitude
Rises 21:52:03 0° 213° (SSW) 2,677 ? -4.6°
Reaches altitude 10° 21:54:19 10° 207° (SSW) 1,790 ? -4.9°
Maximum altitude 21:58:12 45° 134° (SE) 735 ? -5.6°
Drops below altitude 10° 22:02:07 10° 61° (ENE) 1,802 ? -6.3°
Enters shadow 22:02:34 - 60° (ENE) 1,978 ? -6.4°
